User: anonymous   Login
Location: Unspecified
(0.0000°N, 0.0000°E)
Time: 13:31:41
(UTC+00:00)
Language:

Optus B1 - Orbit

View from above orbital plane
View from above orbital plane
View from above satellite
View from above satellite

Ground track
Ground track

The orbit data is extracted from the following two-line orbital elements,

1 22087U 92054A   17117.56843733 +.00000038 +00000-0 +00000-0 0  9996
2 22087 008.6183 046.3088 0007242 030.2783 198.1909 00.99204708101596
Epoch (UTC): 27 April 2017 13:38:32
Eccentricity: 0.0007242
inclination: 8.6183°
perigee height: 36057 km
apogee height: 36119 km
right ascension of ascending node: 46.3088°
argument of perigee: 30.2783°
revolutions per day: 0.99204708
mean anomaly at epoch: 198.1909°
orbit number at epoch: 10159

The dashed part of the orbit path shows where the satellite is in the earth's shadow,  

DLR